Location: La Fredeussais
(48.1780°N, 1.3980°W)
Time: 12:35:56
(UTC+00:00)

PRISM - Pass Details

Date: 02 November 2021
Orbit: 561 x 584 km, 98.2° (Epoch: 29 November)

Event Time Altitude Azimuth Distance (km) Brightness Sun altitude
Rises 05:35:33 0° 358° (N) 2,792 ? -13.2°
Reaches altitude 10° 05:38:33 10° 334° (NNW) 1,883 ? -12.7°
Enters shadow 05:40:00 14° 313° (NW) 1,644 ? -12.5°
